Regional Weather Roundup
Issued by NWS Newport/Morehead, NC

Current Version | Previous Version | Text Only | Print | Product List | Glossary On
Versions: 1 2 3 4 5 6 7 8 9 10 11 12 13 14 15 16 17 18 19 20 21 22 23 24 25 26 27 28 29 30 31 32 33 34 35 36 37 38 39 40 41 42 43 44 45 46 47 48 49 50
000 ASUS42 KMHX 040025 RWRMHX WEATHER ROUNDUP FOR EASTERN NORTH CAROLINA NATIONAL WEATHER SERVICE NEWPORT/MOREHEAD CITY NC 800 PM EDT FRI JUL 03 2015 NOTE: "FAIR" INDICATES FEW OR NO CLOUDS BELOW 12,000 FEET WITH NO SIGNIFICANT WEATHER AND/OR OBSTRUCTIONS TO VISIBILITY NCZ015>017-031-032-045>047-102-103-040100- NORTH COAST CITY SKY/WX TMP DP RH WIND PRES REMARKS EDENTON MOCLDY 75 72 88 S5 29.89F ELIZABETH CITY LGT RAIN 76 74 93 E12 29.89F KITTY HAWK RAIN 75 72 89 CALM 29.90F MANTEO DRIZZLE 75 73 93 W5 29.92R $$ NCZ045>047-081-094-103-104-040100- CENTRAL COAST CITY SKY/WX TMP DP RH WIND PRES REMARKS FRISCO MOCLDY 78 73 84 SW14 29.93S SWANQUARTER N/A 77 N/A N/A SW15 29.85F $$ NCZ095-097-098-100-101-040100- SOUTHERN COAST CITY SKY/WX TMP DP RH WIND PRES REMARKS BEAUFORT CLOUDY 79 76 90 SW18 29.91F CEDAR ISLAND N/A 77 N/A N/A S9 29.94F JACKSONVILLE NOT AVBL PINEY ISLAND LGT RAIN N/A N/A N/A SW12 29.91F WILMINGTON LGT RAIN 76 74 93 SW8 29.91F $$ NCZ011>013-027>030-043-044-078>080-089-090>093-098-040100- COASTAL PLAIN CITY SKY/WX TMP DP RH WIND PRES REMARKS AHOSKIE CLOUDY N/A N/A N/A E5 29.89S CLINTON MOCLDY 82 76 84 S7 29.88F ELIZABETHTOWN PTCLDY 79 72 79 S5 29.90S GOLDSBORO MOCLDY 76 74 94 SE3 29.85F GREENVILLE CLOUDY 75 73 94 SW5 29.90F HAVELOCK CLOUDY 78 75 90 S8 29.90F KENANSVILLE MOCLDY 76 73 91 CALM 29.89F KINSTON CLOUDY 77 73 88 CALM 29.89F NEW BERN MOCLDY 77 74 90 S6 29.90F RICHLANDS MOCLDY 77 70 78 SW8 29.89S ROCKY MOUNT CLOUDY 77 73 87 S6 29.87F WASHINGTON LGT RAIN 75 74 95 SE6 29.88F WHITEVILLE MOCLDY 78 73 86 SW8 29.91F $$ AMZ130-135-150-152-154-156-158-170-250-252-270-ANZ085-086-088-633-658-670-040100- MARINE OBSERVATIONS STATION/POSITION TIME TEMP WIND PRES WAVE SWELL AIR SEA DIR/SP/G HT/PER HT/PER (UTC) (F) (DEG/KT/KT) (MB) (FT/S) (FT/S) CHESAPEAKE LIGHT 0000 76 120/ 15/ 16 1013.9 64 E VA BEACH 2350 77 78 120/ 10/ 12 1013.2 3/ 8 3/ 8 DUCK 0000 77 77 120/ 14/ 16 1012.1 2 E DUCK 0011 78 N/A 3/ 9 OREGON INLET 0000 80 82 200/ 20/ 22 1012.6 13E OREGON INLT 0000 73 N/A 3/ 6 HATTERAS CG 0000 78 79 220/ 11/ 17 1012.9 DIAMOND BUOY 2350 81 81 220/ 23/ 27 1012.8 6/ 5 2/ 9 CAPE LOOKOUT 0000 80 220/ 16/ 20 1012.7 BEAUFORT LAB 0000 80 81 220/ 11/ 19 1012.0 30 SE NEW RVR IN 2308 80 80 230/ 21/ 25 1014.8 27 SE WRIGHTSVLE 0000 80 250/ 17/ 19 N/A 5 SE WRIGHTSVLE 2308 79 79 230/ 16/ 19 1013.3 225 S CAPE HAT 2350 81 80 230/ 12/ 14 1018.9 6/ 7 5/ 7 41 SE CHARLESTON 2350 81 82 230/ 14/ 17 1015.9 4/ 5 2/ 8 $$

USA.gov is the U.S. government's official web portal to all federal, state and local government web resources and services.